Hourly Data Report for June 02, 2021

CARIBOU POINT (AUT)
NOVA SCOTIA
Current Station Operator: ECCC - MSC

45°46'00.000" N
62°41'00.000" W
2.40 m
8200774
71415
WBK

Download Data

Hourly Data (June 2021)
Hourly Data Report for June 2, 2021
TIME
LST
Temp Definition
°C
Dew Point Definition
°C
Rel Hum Definition
%
Precip. Amount Definition
mm

Wind Dir Definition
10's deg

Wind Spd Definition
km/h
Visibility Definition
km
Stn Press Definition
kPa
Hmdx Definition


Wind Chill Definition


Weather Definition


00:00 13.4 9.9 79 0.0 22 9   101.64     LegendNANA
01:00 13.1 9.5 79 0.0 21 9   101.64     LegendNANA
02:00 12.8 9.8 82 0.0 22 9   101.64     LegendNANA
03:00 13.1 9.5 79 0.0 24 8   101.64     LegendNANA
04:00 12.4 9.4 82 0.0 23 10   101.64     LegendNANA
05:00 12.2 9.5 84 0.0 22 12   101.68     LegendNANA
06:00 13.5 9.8 78 0.0 22 12   101.72     LegendNANA
07:00 15.5 10.6 72 0.0 22 11   101.74     LegendNANA
08:00 17.7 11.3 66 0.0 20 7   101.75     LegendNANA
09:00 16.1 10.9 71 0.0 31 11   101.76     LegendNANA
10:00 15.0 10.4 74 0.0 32 23   101.76     LegendNANA
11:00 15.1 10.4 73 0.0 32 22   101.77     LegendNANA
12:00 16.0 12.5 80 0.0 30 11   101.77     LegendNANA
13:00 16.2 11.4 73 0.0 31 16   101.77     LegendNANA
14:00 17.1 11.3 69 0.0 32 11   101.76     LegendNANA
15:00 18.5 11.2 62 0.0 32 8   101.77     LegendNANA
16:00 19.2 10.2 56 0.0 32 4   101.74     LegendNANA
17:00 19.0 10.7 58 0.0 30 7   101.73     LegendNANA
18:00 23.0 9.9 44 0.0 31 7   101.74     LegendNANA
19:00 22.0 10.4 48 0.0 24 9   101.80     LegendNANA
20:00 18.6 11.5 64 0.0 27 13   101.88     LegendNANA
21:00 19.7 10.1 54 0.0 26 11   101.92     LegendNANA
22:00 18.3 10.1 59 0.0 27 8   101.98     LegendNANA
23:00 18.3 8.7 54 0.0 26 10   101.95     LegendNANA

Notes on Data Quality.

Legend

  • E = Estimated
  • M = Missing
  • NA = Not Available*
  • [empty] = Indicates an unobserved value
Date modified: